Weather History for KGHW - February, 2014

Change the Weather History Date:

Friday, February 14, 2014

  Actual Average Record
Temperature  
Mean Temperature 0 °F -  
Max Temperature 6 °F 25 °F 46 °F (1999)
Min Temperature -7 °F 5 °F -28 °F (1970)
Degree Days  
Heating Degree Days 66    
Moisture  
Dew Point -6 °F    
Average Humidity 79    
Maximum Humidity 92    
Minimum Humidity 67    
Precipitation  
Precipitation 0.00 in - - ()
Sea Level Pressure  
Sea Level Pressure 29.93 in    
Wind  
Wind Speed 9 mph (WNW)    
Max Wind Speed 14 mph    
Max Gust Speed -    
Visibility 10 miles    
Events      
Averages and records for this station are not official NWS values.
T = Trace of Precipitation, MM = Missing Value Source: NWS Daily Summary

Daily Weather History Graph

Daily Weather History Graph

Search for Another Location

Airport or City:

Trip Planner

Search our weather history database for the weather conditions in past years. The results will help you decide how hot, cold, wet, or windy it might be!

Date:

Astronomy

Feb. 14, 2014 Rise Set
Actual Time 7:24 AM CST 5:46 PM CST
Civil Twilight 6:54 AM CST 6:17 PM CST
Nautical Twilight 6:19 AM CST 6:52 PM CST
Astronomical Twilight 5:45 AM CST 7:26 PM CST
Moon 5:54 PM CST (2/14) 6:50 AM CST (2/14)
Length of Visible Light 11h 23m
Length of Day
10h 22m
Full, 100% of the Moon is Illuminated
Feb 14
Full
Feb 14
Full
Feb 22
Last Quarter
Mar 1
New
Mar 8
First Quarter

Hourly Weather History & Observations

Time (CST) Temp. Windchill Dew Point Humidity Pressure Visibility Wind Dir Wind Speed Gust Speed Precip Events Conditions
12:13 AM -2.2 °F -18.9 °F -5.8 °F 85% 29.77 in 10.0 mi WNW 10.4 mph - N/A   Clear
12:33 AM -0.4 °F -14.7 °F -5.8 °F 78% 29.77 in 10.0 mi NW 8.1 mph - N/A   Clear
12:53 AM -2.2 °F -16.8 °F -5.8 °F 85% 29.76 in 10.0 mi NNW 8.1 mph - N/A   Clear
1:14 AM -2.2 °F -18.9 °F -5.8 °F 85% 29.77 in 10.0 mi NNW 10.4 mph - N/A   Clear
1:33 AM -2.2 °F -18.0 °F -5.8 °F 85% 29.77 in 10.0 mi NNW 9.2 mph - N/A   Clear
1:53 AM -2.2 °F -14.2 °F -5.8 °F 85% 29.78 in 10.0 mi NW 5.8 mph - N/A   Clear
2:14 AM -2.2 °F -16.8 °F -7.6 °F 78% 29.79 in 10.0 mi NNW 8.1 mph - N/A   Clear
2:33 AM -2.2 °F -16.8 °F -7.6 °F 78% 29.79 in 10.0 mi NNW 8.1 mph - N/A   Clear
2:53 AM -2.2 °F -18.0 °F -7.6 °F 78% 29.79 in 10.0 mi NNW 9.2 mph - N/A   Clear
3:13 AM -2.2 °F -16.8 °F -7.6 °F 78% 29.80 in 10.0 mi NNW 8.1 mph - N/A   Clear
3:33 AM -2.2 °F -18.0 °F -7.6 °F 78% 29.80 in 10.0 mi NW 9.2 mph - N/A   Clear
3:54 AM -4.0 °F -19.0 °F -7.6 °F 85% 29.81 in 10.0 mi NW 8.1 mph - N/A   Clear
4:13 AM -5.8 °F -19.9 °F -9.4 °F 84% 29.82 in 10.0 mi NW 6.9 mph - N/A   Clear
4:33 AM -5.8 °F -21.2 °F -9.4 °F 84% 29.83 in 10.0 mi NW 8.1 mph - N/A   Clear
4:54 AM -5.8 °F -22.4 °F -9.4 °F 84% 29.83 in 10.0 mi NW 9.2 mph - N/A   Clear
5:13 AM -5.8 °F -23.4 °F -9.4 °F 84% 29.84 in 10.0 mi NNW 10.4 mph - N/A   Clear
5:33 AM -5.8 °F -21.2 °F -9.4 °F 84% 29.85 in 10.0 mi NW 8.1 mph - N/A   Clear
5:54 AM -7.6 °F -23.4 °F -9.4 °F 92% 29.86 in 10.0 mi NW 8.1 mph - N/A   Clear
6:13 AM -7.6 °F -22.1 °F -11.2 °F 84% 29.87 in 10.0 mi NW 6.9 mph - N/A   Clear
6:33 AM -7.6 °F -24.6 °F -9.4 °F 92% 29.88 in 10.0 mi NW 9.2 mph - N/A   Clear
6:53 AM -7.6 °F -24.6 °F -11.2 °F 84% 29.89 in 10.0 mi NW 9.2 mph - N/A   Clear
7:13 AM -7.6 °F -24.6 °F -11.2 °F 84% 29.91 in 10.0 mi NW 9.2 mph - N/A   Clear
7:34 AM -7.6 °F -23.4 °F -11.2 °F 84% 29.91 in 10.0 mi NW 8.1 mph - N/A   Clear
7:53 AM -7.6 °F -24.6 °F -11.2 °F 84% 29.92 in 10.0 mi NW 9.2 mph - N/A   Clear
8:13 AM -7.6 °F -25.7 °F -11.2 °F 84% 29.93 in 10.0 mi NW 10.4 mph - N/A   Clear
8:34 AM -5.8 °F -23.4 °F -11.2 °F 77% 29.94 in 7.0 mi NW 10.4 mph - N/A   Clear
8:53 AM -5.8 °F -25.2 °F -9.4 °F 84% 29.95 in 10.0 mi NW 12.7 mph - N/A   Clear
9:13 AM -5.8 °F -22.4 °F -9.4 °F 84% 29.95 in 10.0 mi NW 9.2 mph - N/A   Clear
9:34 AM -2.2 °F -18.0 °F -7.6 °F 78% 29.96 in 10.0 mi NW 9.2 mph - N/A   Clear
9:53 AM -0.4 °F -13.4 °F -5.8 °F 78% 29.97 in 10.0 mi NNW 6.9 mph - N/A   Clear
10:13 AM 1.4 °F -12.5 °F -5.8 °F 72% 29.97 in 10.0 mi NNW 8.1 mph - N/A   Clear
10:33 AM 3.2 °F -11.3 °F -4.0 °F 72% 29.98 in 10.0 mi NW 9.2 mph - N/A   Clear
10:53 AM 3.2 °F -13.1 °F -4.0 °F 72% 29.99 in 10.0 mi NW 11.5 mph - N/A   Clear
11:14 AM 3.2 °F -12.2 °F -4.0 °F 72% 30.00 in 10.0 mi NW 10.4 mph - N/A   Clear
11:33 AM 5.0 °F -10.8 °F -2.2 °F 72% 30.01 in 10.0 mi NW 11.5 mph - N/A   Clear
11:53 AM 5.0 °F -12.3 °F -2.2 °F 72% 30.00 in 10.0 mi WNW 13.8 mph - N/A   Clear
12:14 PM 6.8 °F -8.6 °F -2.2 °F 67% 29.99 in 10.0 mi NW 11.5 mph - N/A   Clear
12:33 PM 6.8 °F -10.0 °F -0.4 °F 72% 29.99 in 10.0 mi WNW 13.8 mph - N/A   Clear
12:53 PM 6.8 °F -10.0 °F -2.2 °F 67% 29.99 in 10.0 mi WNW 13.8 mph - N/A   Clear
1:14 PM 6.8 °F -10.0 °F -0.4 °F 72% 29.99 in 10.0 mi WNW 13.8 mph - N/A   Clear
1:33 PM 6.8 °F -8.6 °F -0.4 °F 72% 29.98 in 10.0 mi WNW 11.5 mph - N/A   Clear
1:53 PM 6.8 °F -7.8 °F -0.4 °F 72% 30.00 in 10.0 mi WNW 10.4 mph - N/A   Clear
2:13 PM 6.8 °F -9.3 °F -0.4 °F 72% 30.00 in 10.0 mi WNW 12.7 mph - N/A   Clear
2:33 PM 6.8 °F -7.8 °F -0.4 °F 72% 30.00 in 10.0 mi West 10.4 mph - N/A   Clear
2:54 PM 6.8 °F -8.6 °F -2.2 °F 67% 30.00 in 10.0 mi West 11.5 mph - N/A   Clear
3:13 PM 6.8 °F -6.9 °F -2.2 °F 67% 29.99 in 10.0 mi NW 9.2 mph - N/A   Clear
3:33 PM 6.8 °F -7.8 °F -2.2 °F 67% 30.00 in 10.0 mi WNW 10.4 mph - N/A   Clear
3:54 PM 6.8 °F -4.8 °F -2.2 °F 67% 30.00 in 10.0 mi WNW 6.9 mph - N/A   Clear
4:13 PM 5.0 °F -10.0 °F -2.2 °F 72% 30.01 in 10.0 mi WNW 10.4 mph - N/A   Clear
4:33 PM 5.0 °F -10.8 °F -2.2 °F 72% 30.01 in 10.0 mi WNW 11.5 mph - N/A   Clear
4:54 PM 3.2 °F -11.3 °F -2.2 °F 78% 30.01 in 10.0 mi WNW 9.2 mph - N/A   Clear
5:13 PM 3.2 °F -10.3 °F -2.2 °F 78% 30.01 in 10.0 mi West 8.1 mph - N/A   Clear
5:33 PM 3.2 °F -10.3 °F -2.2 °F 78% 29.99 in 10.0 mi WNW 8.1 mph - N/A   Clear
5:53 PM 1.4 °F -6.2 °F -4.0 °F 78% 29.98 in 10.0 mi NW 3.5 mph - N/A   Clear
6:13 PM 1.4 °F -8.3 °F -5.8 °F 72% 29.98 in 10.0 mi NW 4.6 mph - N/A   Clear
6:34 PM -0.4 °F -8.3 °F -5.8 °F 78% 29.98 in 10.0 mi West 3.5 mph - N/A   Clear
6:53 PM -2.2 °F -15.6 °F -5.8 °F 85% 29.99 in 10.0 mi West 6.9 mph - N/A   Clear
7:13 PM -2.2 °F -18.0 °F -5.8 °F 85% 30.00 in 10.0 mi West 9.2 mph - N/A   Clear
7:33 PM -0.4 °F -16.7 °F -5.8 °F 78% 30.00 in 10.0 mi WSW 10.4 mph - N/A   Clear
7:53 PM -2.2 °F -18.9 °F -5.8 °F 85% 30.00 in 10.0 mi WSW 10.4 mph - N/A   Clear
8:14 PM -2.2 °F -18.0 °F -5.8 °F 85% 29.99 in 10.0 mi WSW 9.2 mph - N/A   Clear
8:33 PM -2.2 °F -14.2 °F -5.8 °F 85% 29.98 in 10.0 mi West 5.8 mph - N/A   Clear
8:53 PM -2.2 °F -12.5 °F -5.8 °F 85% 29.98 in 10.0 mi West 4.6 mph - N/A   Clear
9:14 PM -2.2 °F -10.4 °F -7.6 °F 78% 29.99 in 10.0 mi West 3.5 mph - N/A   Clear
9:33 PM -2.2 °F -15.6 °F -7.6 °F 78% 29.99 in 10.0 mi West 6.9 mph - N/A   Clear
9:53 PM -2.2 °F -10.4 °F -5.8 °F 85% 29.99 in 10.0 mi WSW 3.5 mph - N/A   Clear
10:13 PM -5.8 °F - -9.4 °F 84% 29.96 in 10.0 mi Calm Calm - N/A   Clear
10:33 PM -4.0 °F - -7.6 °F 85% 29.96 in 10.0 mi Calm Calm - N/A   Clear
10:53 PM -2.2 °F - -5.8 °F 85% 29.95 in 10.0 mi Calm Calm - N/A   Clear
11:13 PM -4.0 °F - -7.6 °F 85% 29.94 in 7.0 mi Calm Calm - N/A   Clear
11:33 PM -4.0 °F -12.4 °F -7.6 °F 85% 29.93 in 10.0 mi SSE 3.5 mph - N/A   Clear
11:54 PM -4.0 °F -12.4 °F -7.6 °F 85% 29.92 in 10.0 mi SSE 3.5 mph - N/A   Clear